Simultaneous Nadir Overpasses (SNOs) Predictions

Prediction of SNOs between AURA and NPP Satellite Orbit:

Table of predicted SNOs for the next 14.0 days since TLE Epoch: 11/16/2013
Index Date (AURA) Time (AURA) Lat,Lon (AURA) SZA (AURA ) Date (NPP) Time (NPP) Lat,Lon (NPP) SZA (NPP ) Distance(km) Time Diff (sec)
1 11/19/2013 02:52:35 -78.91,-149.99 68.38 11/19/2013 02:52:21 -78.92,-149.89 68.39 2.23 14
2 11/19/2013 03:41:55 79.15, 19.06 111.34 11/19/2013 03:42:59 79.14, 19.00 111.30 1.51 64
3 11/21/2013 18:19:50 78.55, 156.24 112.68 11/21/2013 18:18:40 78.55, 156.22 112.74 0.50 70
4 11/21/2013 19:09:08 -78.94, -33.96 67.79 11/21/2013 19:09:15 -78.95, -33.93 67.81 0.61 7
5 11/24/2013 10:36:24 78.62, -87.57 113.19 11/24/2013 10:35:33 78.61, -87.65 113.25 2.14 51
6 11/24/2013
